Location: Newark
(46.9000°N, 28.3500°E)
Time: 14:38:00
(UTC+00:00)

Explorer 7 - Pass Details

Date: 25 August 2019
Orbit: 485 x 680 km, 50.3° (Epoch: 22 September)

Event Time Altitude Azimuth Distance (km) Brightness Sun altitude
Rises 09:44:48 0° 279° (W) 2,974 10.4 53.5°
Reaches altitude 10° 09:47:14 10° 284° (WNW) 2,037 9.7 53.6°
Maximum altitude 09:51:51 55° 3° (N) 742 7.8 53.7°
Drops below altitude 10° 09:56:11 10° 82° (E) 1,918 9.7 53.8°
Sets 09:58:26 0° 87° (E) 2,783 10.4 53.8°
